View from above orbital plane
|
View from above satellite
|
Ground track
|
The orbit data is extracted from the following two-line orbital elements,
1 27945U 03042G 21023.37433929 .00000022 00000-0 13002-4 0 9998
2 27945 98.1199 155.4110 0013193 56.6661 303.5803 14.64908880925286
Epoch (UTC): | 23 January 2021 08:59:02 |
Eccentricity: | 0.0013193 |
inclination: | 98.1199° |
perigee height: | 668 km |
apogee height: | 686 km |
right ascension of ascending node: | 155.4110° |
argument of perigee: | 56.6661° |
revolutions per day: | 14.64908880 |
mean anomaly at epoch: | 303.5803° |
orbit number at epoch: | 92528 |
The dashed part of the orbit path shows where the satellite is in the earth's shadow,
|
|